355  
ASUS44 KLCH 281010  
RWRLCH  
REGIONAL WEATHER ROUNDUP  
NATIONAL WEATHER SERVICE LAKE CHARLES LA  
500 AM CDT SUN MAY 28 2017  
 
NOTE: "FAIR" INDICATES FEW OR NO CLOUDS BELOW 12,000 FEET WITH NO  
SIGNIFICANT WEATHER AND/OR S TO VISIBILITY
.  
 
ACROSS SOUTHEAST TEXAS  
 
CITY SKY/WX TMP DP RH WIND PRES REMARKS
 
BEAUMONT CLOUDY 79 76 90 S10 29.85F  
BEAUMONT CITY CLOUDY 81 75 83 MISG 29.86F  
ORANGE CLOUDY 80 77 90 SW8 29.88S  
JASPER N/A 77 76 95 CALM 29.88R FOG  

 
 
ACROSS CENTRAL LOUISIANA  
 
CITY SKY/WX TMP DP RH WIND PRES REMARKS
 
LEESVILLE CLOUDY 77 75 95 S7 29.87R  
FULLERTON CLOUDY 77 75 93 CALM 29.85R FOG  
ALEXANDRIA INT CLOUDY 75 74 96 S6 29.86S  
ESLER FIELD CLOUDY 76 75 97 CALM 29.89R  
DERIDDER CLOUDY 78 76 95 S6 29.89R  
OAKDALE CLOUDY 79 76 91 S5 29.89R  
OPELOUSAS CLOUDY 77 75 91 S6 29.90R  

 
 
ACROSS SOUTHWEST AND SOUTH CENTRAL LOUISIANA  
 
CITY SKY/WX TMP DP RH WIND PRES REMARKS
 
SULPHUR CLOUDY 81 77 89 S12 29.89R  
LAKE CHARLES CLOUDY 80 76 87 SW8 29.88R  
CHENNAULT INT RAIN 80 77 92 SW8 29.89R  
CAMERON PHI NOT AVBL  
DEQUINCY CLOUDY 78 75 89 S5 29.88R  
JENNINGS CLOUDY 79 75 89 SW8 29.89R  
LAFAYETTE CLOUDY 79 76 90 SW10 29.91R  
NEW IBERIA CLOUDY 79 74 84 SW8 29.92R  
ABBEVILLE CLOUDY 79 79 100 S10 29.91R  
PATTERSON CLOUDY 78 75 90 S8 29.93R  
SALT POINT N/A 79 75 87 VRB5 29.90S  

 
 
SELECTED SITES ACROSS THE REGION  
 
CITY SKY/WX TMP DP RH WIND PRES REMARKS
 
HOUSTON BUSH MOCLDY 80 74 81 S8 29.82F  
HOUSTON HOBBY PTCLDY 79 75 87 S6 29.82F  
GALVESTON CLOUDY 82 78 88 S14G22 29.86F  
COLLEGE STAT CLOUDY 77 75 93 S8 29.83R  
CONROE MOCLDY 77 73 87 S7 29.82S  
HUNTSVILLE CLEAR 77 72 84 S8 29.82R  
LUFKIN PTCLDY 75 73 93 CALM 29.83R  
SHREVEPORT LGT RAIN 75 69 81 N18G28 29.94R  
MONROE CLOUDY 75 73 93 N5 29.97R  
NATCHEZ MS CLOUDY 78 74 87 S5 29.94R  
BATON ROUGE CLOUDY 79 74 84 S9 29.91R  
N.O. INTL ARPT CLOUDY 77 75 93 SW6 29.92S  
SLIDELL CLOUDY 79 75 87 SW3 29.93R  

 
 
MARINE REPORTS  
 
STATION/POSITION TIME SKY/WX TEMP WIND PRES VSBY
 
AIR SEA DIR/SP/G  
(UTC) (F) (DEG/KT/KT) (MB) (MI)  
BUOY 30 S HIGH I 0950 80 79 200/ 16/ 19 1010.7F  
WVE H/P(F/S)= 4/ 4  
 
SEA RIM ST PARK 0900 80 200/ 12/ 14 1011.9F  
PORT ARTHUR 0942 79 80 200/ 9/ 12 1011.3F  
SABINE PASS N 0942 80 82 200/ 8/ 13 1012.8F  
TEXAS POINT NOT AVBL  
CALCASIEU PASS 0948 80 80 220/ 13/ 16 N/A  
LK CHARLES BEACH 0948 81 78 1012.2S  
MARSH ISLAND 0900 79 N/A  
FRESH WATER LOCK 0948 80 81 190/ 11/ 15 1012.7R  
AMERADA PASS 0948 78 75 190/ 4/ 10 1012.9R  

 
 
 
CLICK HERE TO GO TO PREVIOUS BULLETINS.

The Nexlab LA Page
The Nexlab TX Page Main Text Page